[[{"header":{"parameterUnit":"m.s-1","parameterCategory":1,"la1":30.2991,"la2":30.254,"lo1":-89.0895,"lo2":-89.0444,"dy":0.0017,"dx":0.0017,"nx":28,"ny":28,"refTime":"2025-01-11T03:00:00:Z","depth":0,"parameterNumber":2,"parameterNumberName":"U-component_of_WINDS"},"data":[0,0,0,0,0,0,0,0,0,0,0,0,0,0,0,0,0,0,0,0,0,0,0,0,0,0,0,0,0,0,0,0,0,0,0,0,0,0,0,0,0,0,0,0,0,0,0,0,0,0,0,0,0,0,0,0,0,0,-6.0104,-6.0103,0,-6.0073,-6.0072,-6.0072,-5.9894,-5.9889,-5.9885,-5.9881,-5.9852,-5.9855,-5.9858,0,0,0,0,0,0,0,0,0,0,0,0,0,-6.0011,-6.0013,-6.0104,-6.0103,-6.0103,-6.0073,-6.0072,-6.0072,-5.9894,-5.9889,-5.9884,-5.9879,-5.9851,-5.9855,-5.9859,0,0,0,0,0,0,0,0,0,0,0,0,0,-6.0023,-6.0014,-6.0104,-6.0011,-6.0002,-6.0073,-6.0072,-6.0072,-5.9896,-5.9889,-5.9883,-5.9877,-5.985,-5.9854,-5.9859,-6.0018,0,0,-5.9874,-5.9876,0,0,0,0,0,0,0,0,-6.0022,-6.0026,-6.0025,-6.0017,-6.0008,-5.998,-6.0029,-6.0054,-5.9897,-5.9936,-5.9881,-5.9874,-5.99,-5.99,-5.9909,-6.0017,-6.0015,-5.9874,-5.9877,-5.9879,-5.9881,0,0,0,0,0,0,0,-6.0022,-6.0027,-6.0091,-6.0025,-6.0014,-5.9971,-5.9966,-6.0033,-5.9955,-5.9932,-5.9919,-5.9918,-5.9894,-5.9905,-5.9907,-6.0015,-5.9874,-5.9879,-5.9882,-5.9883,-6.025,-6.0256,0,0,0,0,0,0,-6.0034,-6.0027,-6.0092,-6.009,-5.9999,-5.9978,-5.9972,-5.9996,-5.9953,-5.9941,-5.9923,-5.991,-5.9899,-5.9901,-5.9905,-6.0086,-5.9879,-5.9884,-5.9887,-6.0243,-6.0251,-6.0259,0,0,0,0,0,0,-6.0032,-6.0041,-6.0093,-6.0055,-6.0059,-5.9986,-6.0015,-5.9998,-6.0008,-5.9947,-5.9932,-5.9948,-5.9894,-5.9898,-5.9991,-6.0083,-5.9886,-5.989,-6.0235,-6.0246,-6.0255,-6.0452,0,0,0,0,0,0,-6.003,-6.0042,-6.0101,-6.0058,-6.0061,-6.018,-6.002,-6.0003,-6.0017,-5.9999,-5.9966,-5.9954,-5.989,-5.9984,-5.9996,-6.0086,-5.9894,-6.0226,-6.024,-6.0252,-6.0436,-6.0467,-6.0494,0,0,0,0,0,-6.0028,-6.0158,-6.0105,-6.0114,-6.0134,-6.0185,-6.0187,-6.0109,-6.0025,-6.0084,-6.0044,-5.9955,-6.0072,-5.9995,-6.0006,-6.01,-6.022,-6.0236,-6.0251,-6.0424,-6.0461,-6.0493,0,0,0,0,0,0,-6.0215,-6.0151,-6.0091,-6.0211,-6.0205,-6.0155,-6.0226,-6.0152,-6.017,-6.0152,-6.0056,-6.005,-6.0156,-6.0137,-6.0054,-6.0251,-6.0131,-6.0149,-6.0258,-6.0293,-6.0322,-6.0323,-5.9898,0,0,0,0,0,-6.027,-6.0316,-6.0258,-6.037,-6.037,-6.03,-6.0319,-6.026,-6.025,-6.0246,-6.0213,-6.0208,-6.0242,-6.0267,-6.0296,-6.0434,-6.0423,-6.0504,-6.0532,-6.0556,-6.0572,-6.0642,-6.0676,-6.0309,-6.0309,-6.0309,0,0,-6.0384,-6.0355,-6.0391,-6.0407,-6.0395,-6.0446,-6.0298,-6.0359,-6.0395,-6.0256,-6.0339,-6.0316,-6.0303,-6.0419,-6.0468,-6.0406,-6.0672,-6.0576,-6.0595,-6.0598,-6.0661,-6.0696,-6.0727,-6.032,-6.0318,-6.0316,0,0,-6.0618,-6.0602,-6.0691,-6.0683,-6.0666,-6.0618,-6.0641,-6.0602,-6.058,-6.0664,-6.056,-6.0603,-6.0665,-6.066,-6.0665,-6.0898,-6.0816,-6.0911,-6.1059,-6.1128,-6.1157,-6.1182,-6.1263,-6.1294,-6.0928,-6.0928,-6.0928,0,-6.0762,-6.0833,-6.0748,-6.0814,-6.0824,-6.07,-6.079,-6.0786,-6.0781,-6.0791,-6.0723,-6.0798,-6.0781,-6.0892,-6.0949,-6.0959,-6.098,-6.0912,-6.116,-6.1184,-6.1206,-6.1282,-6.1313,-6.0939,-6.0938,-6.0937,-6.0936,0,-6.101,-6.1061,-6.1136,-6.1133,-6.1151,-6.123,-6.1157,-6.1187,-6.1127,-6.1087,-6.1173,-6.1148,-6.1169,-6.1192,-6.1135,-6.1296,-6.1258,-6.1177,-6.1054,-6.1254,-6.1324,-6.1352,-6.0956,-6.0952,-6.0948,-6.0945,0,0,-6.1358,-6.1307,-6.1335,-6.1331,-6.1305,-6.1343,-6.1417,-6.1436,-6.1462,-6.1464,-6.1522,-6.1579,-6.1503,-6.1509,-6.145,-6.1512,-6.1695,-6.1422,-6.142,-6.1472,-6.187,-6.1929,-6.1964,-6.1643,-6.1648,-6.1652,-6.187,0,-6.158,-6.17,-6.1625,-6.1757,-6.1803,-6.1687,-6.175,-6.1741,-6.1707,-6.1741,-6.1703,-6.1743,-6.1641,-6.1644,-6.17,-6.1661,-6.1774,-6.1645,-6.1695,-6.1698,-6.1699,-6.2001,-6.2064,-6.2271,-6.1897,-6.1902,-6.1905,0,-6.1853,-6.1865,-6.2001,-6.1964,-6.1981,-6.2039,-6.205,-6.2085,-6.2073,-6.2043,-6.2051,-6.1977,-6.2047,-6.1928,-6.2023,-6.1937,-6.1953,-6.1938,-6.1944,-6.1943,-6.1811,-6.2006,-6.2335,-6.2365,-6.1948,-6.1944,-6.1941,0,-6.209,-6.214,-6.2227,-6.2228,-6.2189,-6.2232,-6.2218,-6.2199,-6.2216,-6.2227,-6.2236,-6.2257,-6.2267,-6.2285,-6.2218,-6.2138,-6.2321,-6.2197,-6.2297,-6.2299,-6.2338,-6.2336,-6.2672,-6.2355,-6.2355,-6.2354,-6.2354,0,-6.2343,-6.2431,-6.2333,-6.2387,-6.2481,-6.2396,-6.2492,-6.2466,-6.245,-6.2497,-6.2399,-6.2445,-6.2356,-6.2393,-6.2342,-6.2427,-6.2434,-6.2411,-6.2396,-6.2418,-6.2421,-6.2425,-6.2408,-6.2362,-6.236,-6.2359,-6.2357,0,-6.2622,-6.2561,-6.2648,-6.2603,-6.2594,-6.2666,-6.2627,-6.2675,-6.2634,-6.2695,-6.2704,-6.264,-6.2679,-6.2615,-6.2647,-6.2613,-6.273,-6.2695,-6.2734,-6.2722,-6.2825,-6.2815,-6.3173,-6.3214,-6.2874,-6.2878,-6.2881,0,-6.2786,-6.285,-6.2812,-6.2836,-6.2827,-6.2867,-6.2882,-6.2802,-6.2823,-6.2814,-6.2863,-6.2894,-6.2913,-6.2982,-6.2938,-6.2962,-6.2925,-6.3049,-6.2927,-6.2947,-6.2923,-6.2919,-6.2924,-6.3072,-6.3077,-6.308,-6.3083,0,-6.3083,-6.3049,-6.3075,-6.3091,-6.3113,-6.3122,-6.3124,-6.3149,-6.3064,-6.3093,-6.3131,-6.3146,-6.3178,-6.321,-6.3223,-6.3209,-6.3132,-6.3122,-6.3145,-6.3167,-6.3186,-6.3174,-6.2798,-6.3113,-6.311,-6.3108,-6.3106,-6.3105,-6.3307,-6.3358,-6.3339,-6.3371,-6.3364,-6.3368,-6.341,-6.3375,-6.3404,-6.3423,-6.3375,-6.3424,-6.3411,-6.342,-6.3415,-6.3453,-6.3398,-6.3434,-6.3442,-6.3451,-6.3466,-6.3183,-6.3456,-6.3455,-6.3454,-6.3453,-6.3452,0,-6.3596,-6.3578,-6.3609,-6.3614,-6.3639,-6.3565,-6.3564,-6.359,-6.3634,-6.3628,-6.3649,-6.3693,-6.3723,-6.3683,-6.3706,-6.3744,-6.3709,-6.3753,-6.3747,-6.3745,-6.3515,-6.349,-6.378,-6.378,-6.378,-6.378,-6.378,-6.378,-6.3749,-6.383,-6.3795,-6.3872,-6.3853,-6.39,-6.3905,-6.3909,-6.3903,-6.3955,-6.3979,-6.3953,-6.3933,-6.3954,-6.3979,-6.3966,-6.3978,-6.4033,-6.4009,-6.3794,-6.3761,-6.3731,-6.3707,-6.4038,-6.4038,-6.4235,-6.4237,-6.4238]},{"header":{"parameterUnit":"m.s-1","parameterCategory":1,"la1":30.2991,"la2":30.254,"lo1":-89.0895,"lo2":-89.0444,"dy":0.0017,"dx":0.0017,"nx":28,"ny":28,"refTime":"2025-01-11T03:00:00:Z","depth":0,"parameterNumber":3,"parameterNumberName":"V-component_of_WINDS"},"data":[0,0,0,0,0,0,0,0,0,0,0,0,0,0,0,0,0,0,0,0,0,0,0,0,0,0,0,0,0,0,0,0,0,0,0,0,0,0,0,0,0,0,0,0,0,0,0,0,0,0,0,0,0,0,0,0,0,0,-0.3381,-0.338,0,-0.3298,-0.3297,-0.3296,-0.3239,-0.3239,-0.3239,-0.3238,-0.3154,-0.3153,-0.3151,0,0,0,0,0,0,0,0,0,0,0,0,0,-0.3489,-0.3487,-0.3381,-0.338,-0.3379,-0.3298,-0.3297,-0.3296,-0.324,-0.3239,-0.3239,-0.3238,-0.3155,-0.3153,-0.3151,0,0,0,0,0,0,0,0,0,0,0,0,0,-0.3428,-0.3487,-0.3381,-0.3341,-0.3337,-0.3298,-0.3297,-0.3296,-0.324,-0.3239,-0.3238,-0.3238,-0.3156,-0.3153,-0.315,-0.3146,0,0,-0.3142,-0.3141,0,0,0,0,0,0,0,0,-0.3431,-0.3424,-0.3348,-0.3344,-0.3339,-0.3278,-0.3304,-0.3245,-0.324,-0.3276,-0.3238,-0.3238,-0.3196,-0.319,-0.3176,-0.3142,-0.3138,-0.3142,-0.314,-0.3139,-0.3138,0,0,0,0,0,0,0,-0.3436,-0.3427,-0.3348,-0.3347,-0.3341,-0.3327,-0.3317,-0.3293,-0.3241,-0.3273,-0.3269,-0.326,-0.3194,-0.3179,-0.3174,-0.3137,-0.3142,-0.3139,-0.3138,-0.3137,-0.3092,-0.3093,0,0,0,0,0,0,-0.3446,-0.3431,-0.3351,-0.3346,-0.3384,-0.3325,-0.3315,-0.3298,-0.3241,-0.3232,-0.326,-0.3258,-0.3184,-0.3177,-0.3171,-0.3159,-0.3139,-0.3136,-0.3135,-0.3092,-0.3092,-0.3093,0,0,0,0,0,0,-0.3449,-0.344,-0.3354,-0.3387,-0.3375,-0.3324,-0.3306,-0.3297,-0.3282,-0.3231,-0.3222,-0.3255,-0.3183,-0.3174,-0.3152,-0.3156,-0.3135,-0.3133,-0.3091,-0.3092,-0.3093,-0.3139,0,0,0,0,0,0,-0.3452,-0.3441,-0.3439,-0.3387,-0.3374,-0.3337,-0.3306,-0.3296,-0.3277,-0.3273,-0.3224,-0.3215,-0.3182,-0.3156,-0.3149,-0.3152,-0.313,-0.3091,-0.3091,-0.3092,-0.3137,-0.3141,-0.3145,0,0,0,0,0,-0.3456,-0.3456,-0.3439,-0.343,-0.337,-0.3338,-0.333,-0.3291,-0.3278,-0.3275,-0.3242,-0.3216,-0.3157,-0.3154,-0.3146,-0.3148,-0.309,-0.3091,-0.3092,-0.3135,-0.314,-0.3145,0,0,0,0,0,0,-0.3511,-0.3449,-0.3429,-0.3413,-0.3381,-0.3328,-0.3324,-0.3299,-0.327,-0.3267,-0.3221,-0.321,-0.3192,-0.3167,-0.3166,-0.3139,-0.312,-0.3119,-0.3155,-0.316,-0.3164,-0.317,-0.3128,0,0,0,0,0,-0.3521,-0.3499,-0.3446,-0.3437,-0.3422,-0.3376,-0.336,-0.3333,-0.3298,-0.3284,-0.325,-0.3217,-0.319,-0.3174,-0.3147,-0.3133,-0.312,-0.313,-0.3134,-0.3137,-0.3137,-0.3126,-0.3129,-0.3096,-0.3096,-0.3096,0,0,-0.3541,-0.3505,-0.3495,-0.3447,-0.3419,-0.3397,-0.3365,-0.3344,-0.3327,-0.3281,-0.3257,-0.323,-0.319,-0.3172,-0.3161,-0.3151,-0.3143,-0.3139,-0.3142,-0.314,-0.3127,-0.313,-0.3133,-0.3097,-0.3097,-0.3097,0,0,-0.3568,-0.3539,-0.3526,-0.3498,-0.3456,-0.3424,-0.3422,-0.3372,-0.3352,-0.3327,-0.3292,-0.3271,-0.3227,-0.3199,-0.3179,-0.3192,-0.3166,-0.3185,-0.3206,-0.3195,-0.3197,-0.3199,-0.3202,-0.3204,-0.3185,-0.3185,-0.3185,0,-0.3599,-0.3565,-0.3523,-0.3503,-0.3483,-0.3439,-0.3426,-0.3401,-0.3352,-0.3338,-0.3327,-0.3268,-0.3239,-0.3212,-0.3214,-0.32,-0.3194,-0.319,-0.32,-0.3202,-0.3203,-0.3205,-0.3207,-0.3187,-0.3187,-0.3187,-0.3186,0,-0.3604,-0.3581,-0.3576,-0.3528,-0.3507,-0.3491,-0.3446,-0.3429,-0.3404,-0.3374,-0.3347,-0.331,-0.3273,-0.3265,-0.324,-0.3233,-0.3228,-0.3209,-0.3189,-0.3209,-0.321,-0.3211,-0.3191,-0.319,-0.3189,-0.3188,0,0,-0.3663,-0.3591,-0.359,-0.3567,-0.3516,-0.3497,-0.3478,-0.3441,-0.3427,-0.3394,-0.3376,-0.3338,-0.332,-0.3297,-0.3269,-0.326,-0.327,-0.3241,-0.324,-0.3247,-0.3258,-0.3271,-0.3273,-0.3253,-0.3253,-0.3253,-0.326,0,-0.3681,-0.3644,-0.3605,-0.3581,-0.3558,-0.3516,-0.3498,-0.3465,-0.3436,-0.3411,-0.3379,-0.3352,-0.3331,-0.3317,-0.3305,-0.3271,-0.3271,-0.327,-0.3234,-0.3234,-0.3245,-0.3274,-0.3289,-0.3298,-0.3261,-0.3261,-0.3261,0,-0.3697,-0.3664,-0.3638,-0.3587,-0.3576,-0.3561,-0.3523,-0.3501,-0.3461,-0.344,-0.3414,-0.3383,-0.336,-0.3342,-0.3309,-0.3309,-0.3291,-0.3272,-0.3271,-0.3266,-0.3248,-0.3268,-0.3301,-0.3302,-0.3262,-0.3262,-0.3262,0,-0.3741,-0.3691,-0.3668,-0.365,-0.359,-0.358,-0.3555,-0.3514,-0.3494,-0.3461,-0.3447,-0.3412,-0.3392,-0.3365,-0.3325,-0.3317,-0.3295,-0.3275,-0.3276,-0.3277,-0.3273,-0.3274,-0.3302,-0.3264,-0.3264,-0.3264,-0.3264,0,-0.3764,-0.3749,-0.3687,-0.3673,-0.3654,-0.3609,-0.3592,-0.3563,-0.3527,-0.3505,-0.3467,-0.3448,-0.3397,-0.3371,-0.334,-0.3315,-0.3307,-0.3289,-0.3281,-0.3292,-0.3294,-0.328,-0.3278,-0.3264,-0.3264,-0.3264,-0.3264,0,-0.381,-0.3768,-0.374,-0.3684,-0.367,-0.3659,-0.3611,-0.3595,-0.3563,-0.3537,-0.3528,-0.3477,-0.3445,-0.3402,-0.3358,-0.3336,-0.3315,-0.3303,-0.3328,-0.3323,-0.3326,-0.3326,-0.3345,-0.3345,-0.3309,-0.3309,-0.331,0,-0.3827,-0.3814,-0.3757,-0.3739,-0.3715,-0.3688,-0.3666,-0.3621,-0.36,-0.3552,-0.3542,-0.3506,-0.3476,-0.3426,-0.3385,-0.335,-0.3335,-0.3345,-0.333,-0.3341,-0.3334,-0.3335,-0.3332,-0.3348,-0.3349,-0.3349,-0.335,0,-0.3861,-0.384,-0.381,-0.3773,-0.3748,-0.3716,-0.3683,-0.3671,-0.3618,-0.3597,-0.3563,-0.3539,-0.3491,-0.3456,-0.3415,-0.3388,-0.336,-0.3355,-0.3353,-0.3364,-0.3378,-0.3369,-0.3337,-0.3354,-0.3354,-0.3354,-0.3353,-0.3353,-0.3892,-0.3878,-0.3834,-0.3802,-0.3772,-0.3741,-0.3723,-0.3688,-0.3658,-0.3616,-0.3591,-0.3557,-0.3515,-0.3457,-0.3431,-0.3404,-0.3393,-0.3391,-0.339,-0.339,-0.3393,-0.3383,-0.3396,-0.3396,-0.3396,-0.3396,-0.3396,0,-0.3922,-0.3892,-0.3863,-0.3816,-0.3791,-0.3766,-0.3727,-0.3707,-0.3677,-0.3641,-0.3611,-0.3571,-0.3536,-0.3491,-0.3453,-0.3439,-0.3425,-0.3431,-0.3431,-0.3425,-0.3405,-0.341,-0.3443,-0.3443,-0.3443,-0.3443,-0.3443,-0.3443,-0.3935,-0.391,-0.3883,-0.3841,-0.3811,-0.3777,-0.3757,-0.3728,-0.3698,-0.3655,-0.3625,-0.3596,-0.3556,-0.3514,-0.348,-0.3468,-0.3455,-0.3464,-0.3448,-0.3431,-0.3426,-0.3422,-0.3427,-0.3462,-0.3462,-0.3469,-0.3469,-0.3469]}]]